AirNav   Air Wisconsin pilot careers
 
 737 users online  

I83 Salem Municipal Airport
Salem, Indiana, USA

GOING TO SALEM?


FAA INFORMATION EFFECTIVE 24 MAY 2018

Location

FAA Identifier: I83
Lat/Long: 38-36-07.2060N / 086-08-23.9240W
38-36.120100N / 086-08.398733W
38.6020017 / -86.1399789
(estimated)
Elevation: 822 ft. / 251 m (estimated)
Variation: 02W (1985)
From city: 2 miles W of SALEM, IN
Time zone: UTC -4 (UTC -5 during Standard Time)
Zip code: 47167

Airport Operations

Airport use: Open to the public
Control tower: no
ARTCC: INDIANAPOLIS CENTER
FSS: TERRE HAUTE FLIGHT SERVICE STATION
NOTAMs facility: HUF (NOTAM-D service available)
Attendance: IREG
Wind indicator: lighted
Segmented circle: no
Lights: MIRL RY 10/28 PRESET LOW INTST; TO INCR INTST ACTVT - CTAF.
Beacon: white-green (lighted land airport)
Operates sunset to sunrise.

Airport Communications

CTAF/UNICOM: 123.0
  • UNICOM NOT RGRLY MNTRD.

Nearby radio navigation aids

VOR radial/distance  VOR name  Freq  Var
BQMr319/31.6BOWMAN VOR/DME112.2004W
OOMr148/39.3HOOSIER VORTAC110.2002W
IIUr317/39.9LOUISVILLE VORTAC114.8001E

 
NDB name  Hdg/Dist  Freq  Var  ID
GODMAN352/39.439603WGOI --. --- ..

Airport Services

Fuel available: 100LL
FUEL AVBL 24 HRS WITH CREDIT CARD.
Parking: hangars and tiedowns
Airframe service: NONE
Powerplant service: NONE

Runway Information

Runway 10/28

Dimensions: 2738 x 50 ft. / 835 x 15 m
Surface: asphalt, in good condition
Weight bearing capacity: 
Single wheel: 7.0
Runway edge lights: medium intensity
Gradient: W
RUNWAY 10  RUNWAY 28
Latitude: 38-36.150167N38-36.081667N
Longitude: 086-08.722167W086-08.154000W
Elevation: 821.0 ft.810.0 ft.
Gradient: 0.5%0.4% UP
Traffic pattern: leftleft
Displaced threshold: no238 ft.
Markings: basic, in good conditionbasic, in good condition
Visual slope indicator: 2-light PAPI on left (4.00 degrees glide path)
Runway end identifier lights: yes
REIL OTS INDEFLY.
yes
Obstructions: 61 ft. trees, 1398 ft. from runway, 53 ft. right of centerline, 19:1 slope to clear27 ft. bldg, 257 ft. from runway, 129 ft. left of centerline, 2:1 slope to clear
APCH RATIO 19:1 TO DSPLCD THLD.

Airport Ownership and Management from official FAA records

Ownership: Publicly-owned
Owner: SALEM BOARD OF AVN CMSNRS
2593 W. STATE ROAD 56
SALEM, IN 47167
Phone 812-472-3749
Manager: LOWELL DEPOY
2593 W STATE ROAD 56
SALEM, IN 47167
Phone 812-472-3749
MGR CELL: 812-896-4775

Airport Operational Statistics

Aircraft based on the field: 34
Single engine airplanes: 33
Ultralights: 1
    
Aircraft operations: avg 105/week *
73% local general aviation
27% transient general aviation
* for 12-month period ending 31 December 2015

Instrument Procedures

There are no published instrument procedures at I83.

Some nearby airports with instrument procedures:

KBFR - Virgil I Grissom Municipal Airport (20 nm NW)
KSER - Freeman Municipal Airport (22 nm NE)
KJVY - Clark Regional Airport (24 nm SE)
KFRH - French Lick Municipal Airport (24 nm W)
KLOU - Bowman Field Airport (32 nm SE)
 
Loc | Ops | Rwys | IFR | FBO | Links
Com | Nav | Svcs | Stats | Notes

AirNav Hotels Sweepstakes
 
Area around I83 (Salem Municipal Airport)
 
Road maps at: MapQuest Bing Google
 
Aerial photo
WARNING: Photo may not be current or correct
Aerial photo of I83 (Salem Municipal Airport)
Do you have a better or more recent aerial photo of Salem Municipal Airport that you would like to share? If so, please send us your photo.

 
Sectional chart

 
Airport distance calculator
Flying to Salem Municipal Airport? Find the distance to fly.

From to I83

Sunrise and sunset
Times for 19-Jun-2018
 Local
(UTC-4)
 Zulu
(UTC)
Morning civil twilight05:4909:49
Sunrise06:2110:21
Sunset21:1101:11
Evening civil twilight21:4301:43

Current date and time
Zulu (UTC)  20-Jun-2018 03:46:22
Local (UTC-4)  19-Jun-2018 23:46:22
 
METAR
KFRH 
24nm W 
200335Z AUTO 00000KT 10SM CLR 23/22 A2995 RMK AO1
KSDF 
32nm SE 
200256Z 23006KT 10SM FEW250 29/21 A2993 RMK AO2 SLP130 T02890211 53004
KLOU 
32nm SE 
200253Z AUTO 24007KT 10SM CLR 28/22 A2994 RMK AO2 SLP131 T02830222 52005
KIMS 
33nm E 
200335Z AUTO 00000KT 10SM CLR 25/20 A2997 RMK AO1
KBMG 
40nm NW 
200253Z AUTO 35004KT 10SM FEW120 21/21 A2994 RMK AO2 RAE00 SLP130 P0000 60011 T02110206 55002
KBAK 
41nm N 
200151Z 00000KT 10SM VCTS SCT050 24/21 A2993 RMK OCNL LTGCG TS NNE MOV SE LAST
KHNB 
44nm SW 
200256Z AUTO 20003KT 10SM CLR 26/22 A2995 RMK AO2 SLP136 T02560222 53008
KFTK 
44nm S 
200256Z AUTO 21003KT 10SM CLR 25/21 A2996 RMK AO2 SLP140 T02530209 50005
KDCY 
47nm W 
200335Z AUTO 36003KT 10SM SCT044 BKN050 OVC095 24/19 A2995 RMK AO2 T02410185
TAF
KSDF 
32nm SE 
191944Z 1920/2024 24009KT P6SM SCT050 FM200000 22009KT P6SM SCT090 SCT250 FM200800 24004KT P6SM SCT100
NOTAMs
Click for the latest NOTAMs
NOTAMs are issued by the DoD/FAA and will open in a separate window not controlled by AirNav.

 

 
 

FBO, Fuel Providers, and Aircraft Ground Support

  
 Business Name 
 
 Contact 
 
 Services / Description 
 
Fuel Prices
 
Comments
  
Salem Municipal Airport 812-883-4265
812-883-4264
[web site]
[email]
Aviation fuel, Hangar leasing / sales, Public telephone, Internet access, Restrooms

More info about Salem Municipal Airport
independent
100LL
SS $4.61 
 Updated 07-Jun-2018
 
   write
SS=Self service
Update Fuel Prices
 

Would you like to see your business listed on this page?

 If your business provides an interesting product or service to pilots, flight crews, aircraft, or users of the Salem Municipal Airport, you should consider listing it here.  To start the listing process, click on the button below
 
Add a business
 

Other Pages about Salem Municipal Airport

Update a link
 
Copyright © AirNav, LLC. All rights reserved. Privacy Policy  Contact